Probability
0 0 0 0 0 0 0 0 0 0 0 0 0 0 0 0 0 0 0 0 0 0 0 0 0 0 0 0 0 0 1 3 3 3 3 3 3 3 3 3 2 1 0 0
0 0 0 0 0 0 0 0 0 0 0 0 0 0 0 0 0 0 0 0 0 0 0 0 0 0 0 0 0 1 2 3 3 3 3 3 3 3 3 3 2 1 0 0
0 0 0 0 0 0 0 0 0 0 0 0 0 0 0 0 0 0 0 0 0 0 0 0 0 0 0 0 1 2 3 3 3 3 3 2 1 1 2 2 1 0 0 0
0 0 0 0 0 0 0 0 0 0 0 0 0 0 0 0 0 0 0 0 0 0 0 0 0 0 0 0 2 3 3 3 3 3 3 2 0 0 1 1 0 0 0 0
0 0 0 0 0 0 0 0 0 0 0 0 0 0 0 0 0 0 0 0 0 0 0 0 0 0 0 0 1 3 3 3 2 3 3 2 1 0 0 0 0 0 0 0
0 0 0 0 0 0 0 0 0 0 0 0 0 0 0 0 0 0 0 0 0 0 0 0 0 0 0 0 1 2 3 2 2 3 3 3 1 1 0 0 0 0 0 0
0 0 0 0 0 0 0 0 0 0 0 0 0 0 0 0 0 0 0 0 0 0 0 0 0 0 0 0 0 1 1 2 3 3 3 2 2 1 1 0 0 0 0 0
0 0 0 0 0 0 0 0 0 0 0 0 0 0 0 0 0 0 0 0 0 0 0 0 0 0 0 0 0 0 1 2 3 3 3 1 1 1 1 1 1 0 0 0
0 0 0 0 0 0 0 0 0 0 0 0 0 0 0 0 0 0 0 0 0 0 0 0 0 0 0 0 0 0 0 1 1 2 2 1 1 1 1 1 1 0 0 0
0 0 0 0 0 0 0 0 0 0 0 0 0 0 0 0 0 0 0 0 0 0 0 0 0 0 0 0 0 0 0 0 0 1 1 1 1 1 1 0 0 0 0 0
0 0 0 0 0 0 0 0 0 0 0 0 0 0 0 0 0 0 0 0 0 0 0 0 0 0 0 0 0 0 0 0 0 0 0 0 1 1 0 0 0 0 0 0
0 0 0 0 0 0 0 0 0 0 0 0 0 0 0 0 0 0 0 0 0 0 0 0 0 0 0 0 0 0 0 0 0 0 0 0 0 0 0 0 0 0 0 0
0 0 0 0 0 0 0 0 0 0 0 0 0 0 0 0 0 0 0 0 0 0 0 0 0 0 0 0 0 0 0 0 0 0 0 0 0 0 0 0 0 0 0 0
0 0 0 0 0 0 0 0 0 0 0 0 0 0 0 0 0 0 0 0 0 0 0 0 0 0 0 0 0 0 0 0 0 0 0 0 0 0 0 0 0 0 0 0
0 0 0 0 0 0 0 0 0 0 0 0 0 0 0 0 0 0 0 0 0 0 0 0 0 0 0 0 0 0 0 0 0 0 0 0 0 0 0 0 0 0 0 0
0 0 0 0 0 0 0 0 0 0 0 0 0 0 0 0 0 0 0 0 0 0 0 0 0 0 0 0 0 0 0 0 0 0 0 0 0 0 0 0 0 0 0 0
0 0 0 0 0 0 0 0 0 0 0 0 0 0 0 0 0 0 0 0 0 0 0 0 0 0 0 0 0 0 0 0 0 0 0 0 0 0 0 0 0 0 0 0
0 0 0 0 0 0 0 0 0 0 0 0 0 0 0 0 0 0 0 0 0 0 0 0 0 0 0 0 0 0 0 0 0 0 0 0 0 0 0 0 0 0 0 0
0 0 0 0 0 0 0 0 0 0 0 0 0 0 0 0 0 0 0 0 0 0 0 0 0 0 0 0 0 0 0 0 0 0 0 0 0 0 0 0 0 0 0 0
0 0 0 0 0 0 0 0 0 0 0 0 0 0 0 0 0 0 0 0 0 0 0 0 0 0 0 0 0 0 0 0 0 0 0 0 0 0 0 0 0 0 0 0
0 0 0 0 0 0 0 0 0 0 0 0 0 0 0 0 0 0 0 0 0 0 0 0 0 0 0 0 0 0 0 0 0 0 0 0 0 0 0 0 0 0 0 0
0 0 0 0 0 0 0 0 0 0 0 0 0 0 0 0 0 0 0 0 0 0 0 0 0 0 0 0 0 0 0 0 0 0 0 0 0 0 0 0 0 0 0 0
0 0 0 0 0 0 0 0 0 0 0 0 0 0 0 0 0 0 0 0 0 0 0 0 0 0 0 0 0 0 0 0 0 0 0 0 0 0 0 0 0 0 0 0
0 0 0 0 0 0 0 0 0 0 0 0 0 0 0 0 0 0 0 0 0 0 0 0 0 0 0 0 0 0 0 0 0 0 0 0 0 0 0 0 0 0 0 0
0 0 0 0 0 0 0 0 0 0 0 0 0 0 0 0 0 0 0 0 0 0 0 0 0 0 0 0 0 0 0 0 0 0 0 0 0 0 0 0 0 0 0 0
0 0 0 0 0 0 0 0 0 0 0 0 0 0 0 0 0 0 0 0 0 0 0 0 0 0 0 0 0 0 0 0 0 0 0 0 0 0 0 0 0 0 0 0
0 0 0 0 0 0 0 0 0 0 0 0 0 0 0 0 0 0 0 0 0 0 0 0 0 0 0 0 0 0 0 0 0 0 0 0 0 0 0 0 0 0 0 0
Wind_Speed
7 6 6 8 9 10 12 12 12 10 9 7 6 5 4 3 1 1 1 1 1 2 2 3 3 4 4 5 5 6 6 6 6 5 5 4 4 4 4 4 4 4 4 4
8 6 7 10 11 11 12 12 13 12 10 6 5 4 3 3 2 2 2 2 1 1 2 3 3 3 3 4 5 5 6 6 5 5 5 4 4 4 4 4 4 4 4 3
7 5 7 11 9 10 9 9 10 10 7 4 4 3 3 3 2 2 2 2 2 2 1 2 3 3 4 4 5 5 5 5 4 5 4 5 4 4 4 4 4 4 4 3
6 6 10 2 1 4 6 7 8 7 6 5 4 3 3 2 2 2 2 2 2 1 1 1 2 3 3 4 4 5 4 4 4 4 4 4 4 4 4 4 3 3 3 3
5 7 8 3 3 4 6 6 5 6 6 4 2 3 3 0 2 3 2 2 1 1 1 1 2 3 4 4 4 4 3 3 4 4 4 4 4 4 4 4 4 3 3 3
6 7 7 1 2 1 4 6 1 3 3 2 3 5 1 3 2 2 2 2 1 0 1 1 2 3 4 4 4 3 3 3 3 3 4 4 4 4 4 4 4 4 4 4
9 9 6 0 2 4 7 1 2 1 2 2 3 4 3 3 2 2 2 2 1 1 1 1 2 2 4 4 3 2 3 3 3 3 3 3 3 4 4 3 4 4 4 4
7 9 6 3 5 5 2 3 1 1 2 3 3 2 1 1 2 1 2 2 1 1 1 1 2 2 2 3 2 2 2 3 3 3 3 3 3 4 4 4 4 4 4 3
5 4 3 2 2 2 3 3 3 3 3 2 2 2 2 1 1 0 1 1 1 1 1 1 1 1 1 1 2 2 3 3 3 3 3 3 3 4 4 4 3 3 3 3
6 6 4 3 4 4 4 4 4 3 3 3 3 3 3 2 1 1 1 1 1 1 1 1 0 0 1 0 2 3 3 3 2 2 2 2 2 3 3 3 3 3 3 3
9 7 5 5 5 5 4 4 3 3 3 3 3 3 3 2 2 1 1 1 1 1 1 0 0 0 0 1 2 3 3 2 2 2 2 2 2 1 2 2 2 3 3 3
8 6 6 6 4 4 5 5 4 4 3 3 3 3 3 2 2 1 1 1 1 1 1 0 0 0 0 1 2 3 3 2 2 1 1 1 1 1 1 1 0 1 2 3
8 6 6 6 6 6 6 5 5 4 4 3 3 3 3 2 2 2 2 2 2 2 1 1 1 1 1 1 2 3 3 3 2 2 2 2 2 2 1 1 2 2 2 2
8 7 8 7 6 5 5 5 4 4 3 3 2 2 3 3 3 3 3 2 2 2 2 2 2 1 1 2 2 3 3 2 2 2 2 2 2 2 2 2 2 2 2 3
8 9 8 6 5 4 4 4 4 4 3 3 3 3 3 4 4 3 2 2 2 2 2 1 2 1 1 2 2 3 3 2 2 2 2 2 2 2 2 3 3 2 2 2
6 6 7 7 7 5 5 5 5 5 4 4 4 3 3 3 3 2 2 2 3 3 2 2 2 2 1 2 2 3 2 2 2 2 2 2 3 3 3 3 3 3 3 2
7 7 7 7 7 6 6 5 5 5 4 4 4 3 3 3 3 3 3 3 3 2 2 2 2 1 2 2 3 2 2 2 3 3 2 2 2 3 3 3 3 3 3 1
9 9 8 7 6 6 5 5 5 5 5 4 4 4 4 4 4 4 3 3 3 2 2 2 1 1 2 2 2 2 2 2 2 2 2 2 2 2 2 3 3 3 3 2
7 7 7 6 6 6 5 5 5 4 4 4 4 4 4 4 3 3 3 4 3 3 2 1 1 2 2 2 2 2 2 2 2 2 2 2 2 2 3 3 3 3 3 3
4 4 4 4 5 5 5 4 4 4 4 4 5 4 4 3 3 3 4 4 3 2 2 2 2 2 2 2 2 2 2 2 3 2 2 3 3 3 3 3 3 3 3 3
2 3 3 3 3 4 4 4 4 4 4 4 5 4 4 3 3 3 4 3 2 1 2 2 2 2 1 1 3 2 3 3 3 3 3 3 3 3 3 3 3 4 3 3
2 2 3 3 3 3 2 3 3 3 3 3 4 3 3 3 3 3 3 2 2 1 2 2 2 2 2 2 2 3 3 3 3 3 3 3 3 3 3 3 4 4 4 4
2 2 2 2 2 2 2 2 3 3 3 3 4 4 3 3 3 3 3 2 2 2 2 2 2 2 3 3 2 3 3 3 3 3 3 3 3 3 4 4 4 4 4 4
2 2 2 2 2 3 3 2 2 2 2 2 3 3 3 2 2 2 1 1 2 2 2 2 3 4 4 3 3 3 3 3 3 3 4 4 4 4 4 4 4 4 4 5
3 3 3 3 3 2 2 2 2 2 2 1 2 2 2 2 2 2 1 2 2 2 2 2 4 4 3 3 3 3 3 3 4 3 3 3 3 3 4 4 4 4 4 4
3 3 3 3 2 2 2 2 2 2 2 1 1 1 1 1 1 2 2 2 2 3 2 2 2 3 3 3 3 3 4 4 4 4 4 4 4 4 4 4 5 4 4 4
3 3 3 2 2 2 2 2 2 2 2 2 1 1 1 1 1 2 2 2 2 2 2 2 2 2 2 3 3 3 4 4 4 4 4 4 4 4 4 5 4 4 4 4
Wind_Direction
255 261 247 246 242 230 236 250 260 265 264 274 277 280 280 280 277 264 218 199 200 199 189 187 189 187 188 189 186 184 185 191 198 198 192 191 194 197 198 203 211 211 218 224
239 235 244 248 246 242 242 250 255 261 267 289 289 278 270 274 264 254 244 223 218 215 206 199 191 184 181 182 181 183 187 190 189 192 187 188 194 193 187 193 201 202 212 221
251 241 247 245 242 235 234 239 246 254 267 271 265 261 264 279 269 269 270 257 230 218 216 200 186 181 182 181 176 179 182 184 187 190 190 190 192 190 190 196 200 206 213 220
257 243 244 259 131 227 234 243 243 256 269 272 281 294 285 302 301 299 302 288 262 239 212 188 167 169 176 175 173 175 177 174 175 185 187 189 190 191 198 201 205 214 219 221
241 251 260 237 207 220 233 244 240 248 259 266 276 261 228 347 328 320 319 311 285 248 211 170 150 161 167 172 173 176 176 183 181 180 186 190 194 201 205 202 204 214 216 220
231 248 256 233 129 221 242 241 193 242 253 247 225 255 287 43 4 355 3 15 52 126 155 139 125 156 168 174 178 185 187 192 190 183 188 197 201 206 207 206 209 215 219 224
234 247 260 332 145 191 226 276 85 242 259 242 250 312 11 15 9 15 27 45 75 109 123 115 125 153 172 172 180 190 190 185 184 186 191 198 204 206 204 208 212 219 222 225
225 237 246 133 173 215 309 16 341 282 268 260 285 327 342 356 3 26 46 66 89 99 90 107 134 159 177 178 180 178 179 179 184 191 190 192 198 203 202 204 211 218 225 228
239 258 14 155 228 303 317 293 292 280 279 264 253 263 280 284 292 61 68 72 81 94 99 101 130 191 198 185 179 179 177 182 188 194 196 199 201 199 198 202 215 223 223 227
251 253 255 255 262 270 277 287 302 298 281 256 247 248 253 254 241 193 126 99 104 125 124 90 51 288 260 211 191 195 193 190 191 199 198 200 207 209 207 208 215 224 229 232
252 259 261 249 250 262 270 277 281 287 274 260 256 249 251 251 237 206 157 140 151 174 182 111 44 334 307 238 216 210 209 203 198 200 204 208 210 239 236 231 246 247 245 243
256 264 264 270 268 264 262 262 264 264 262 257 246 235 236 243 239 220 187 166 177 194 205 211 246 257 248 234 230 219 213 207 200 201 210 216 214 214 54 231 206 254 283 282
273 282 274 280 276 264 265 267 261 257 251 244 241 227 226 227 221 221 211 199 202 209 222 222 237 257 249 231 229 219 217 213 205 210 215 219 221 234 241 188 179 205 228 261
253 255 256 253 257 262 261 262 255 248 245 239 231 224 223 220 211 216 221 216 202 203 208 216 223 229 241 238 234 230 221 212 215 218 223 224 223 231 237 243 241 230 206 207
247 247 252 258 256 249 244 239 236 235 232 224 213 213 215 219 218 216 212 209 199 196 199 215 239 248 244 232 236 235 225 218 218 224 228 229 232 234 237 242 249 247 245 198
249 248 244 244 242 240 235 233 237 234 229 223 218 217 217 221 216 207 196 194 201 211 216 221 240 257 255 234 228 230 223 211 231 230 226 227 231 237 241 243 251 250 250 252
242 240 237 238 239 236 233 237 244 243 233 226 223 216 211 206 206 204 204 207 214 218 222 234 249 246 240 238 232 236 231 202 202 223 232 238 243 246 250 249 254 259 258 261
248 250 252 249 245 240 238 239 240 239 235 226 211 202 209 214 214 210 206 204 206 215 232 233 221 221 225 228 229 241 237 223 217 223 230 239 255 265 266 264 263 267 273 244
244 248 250 246 242 239 239 240 237 233 226 209 202 203 210 223 222 212 201 203 215 230 237 214 216 225 216 212 221 223 224 220 219 222 228 227 241 253 261 264 266 269 270 265
248 246 245 243 237 233 234 233 228 224 215 205 203 204 210 220 221 212 206 211 226 241 228 210 207 216 219 197 206 217 218 223 230 234 236 237 241 247 257 265 265 263 264 262
256 251 241 240 239 234 231 226 220 220 215 209 207 207 212 220 222 217 217 222 214 215 211 204 213 216 224 220 216 226 221 219 225 234 237 240 244 249 253 258 261 260 261 262
263 254 247 241 234 235 231 222 216 212 209 209 209 208 209 217 224 227 228 237 229 215 229 225 224 217 224 232 228 229 229 224 227 233 239 244 248 251 253 259 262 264 263 264
265 253 245 241 238 239 231 220 212 207 210 210 209 212 217 224 228 231 236 241 235 227 244 241 238 223 229 236 237 233 234 232 233 237 242 244 247 250 253 257 262 266 267 262
265 259 250 238 225 221 225 228 223 219 216 217 216 215 215 219 232 241 247 215 231 242 248 230 229 226 233 245 242 242 241 238 237 238 240 241 243 246 252 258 262 265 263 261
258 252 241 229 228 231 231 229 223 213 207 208 213 213 220 227 231 232 237 224 222 241 250 230 227 232 239 245 245 248 246 242 242 242 241 244 246 250 255 258 260 262 261 258
255 252 246 241 243 241 232 224 227 220 211 216 230 225 223 220 214 217 226 227 232 240 251 252 241 241 249 248 250 253 254 247 240 238 238 241 245 249 252 254 259 258 257 255
248 246 240 237 234 227 224 225 226 225 222 220 234 242 234 228 221 220 230 232 231 236 244 250 248 249 258 257 256 256 256 252 243 238 236 238 244 247 249 252 254 254 253 252